Wetterdaten: Sonntag, 18.02.2007
Datum Zeit Temp. A. Feuchte A. Luftdruck Regen Wind Richtung Richtung Sonnenschein UV Solar Windben
18.02.2007 00:00 4,6 C 76 % 1014,6 hPa 0,0 mm 0,0 km/h (0 Bft) O 101 0 min 0 UV-I 0 W/m 0,0 km/h (0 Bft)
18.02.2007 00:05 4,4 C 76 % 1014,6 hPa 0,1 mm 0,0 km/h (0 Bft) O 101 0 min 0 UV-I 0 W/m 0,0 km/h (0 Bft)
18.02.2007 00:10 4,3 C 77 % 1014,5 hPa 0,0 mm 0,0 km/h (0 Bft) O 101 0 min 0 UV-I 0 W/m 0,0 km/h (0 Bft)
18.02.2007 00:15 4,4 C 75 % 1014,5 hPa 0,0 mm 0,0 km/h (0 Bft) O 101 0 min 0 UV-I 0 W/m 0,0 km/h (0 Bft)
18.02.2007 00:20 4,7 C 75 % 1014,5 hPa 0,0 mm 0,0 km/h (0 Bft) O-SO 108 0 min 0 UV-I 0 W/m 0,0 km/h (0 Bft)
18.02.2007 00:25 4,8 C 74 % 1014,3 hPa 0,0 mm 0,0 km/h (0 Bft) O-SO 108 0 min 0 UV-I 0 W/m 0,0 km/h (0 Bft)
18.02.2007 00:30 4,9 C 73 % 1014,2 hPa 0,0 mm 0,0 km/h (0 Bft) O-SO 108 0 min 0 UV-I 0 W/m 1,6 km/h (1 Bft)
18.02.2007 00:35 4,7 C 74 % 1014,3 hPa 0,0 mm 0,0 km/h (0 Bft) O-SO 107 0 min 0 UV-I 0 W/m 0,0 km/h (0 Bft)
18.02.2007 00:40 4,7 C 74 % 1014,3 hPa 0,0 mm 0,0 km/h (0 Bft) O-SO 108 0 min 0 UV-I 0 W/m 0,0 km/h (0 Bft)
18.02.2007 00:45 4,7 C 74 % 1014,2 hPa 0,0 mm 0,1 km/h (0 Bft) O-SO 108 0 min 0 UV-I 0 W/m 1,6 km/h (1 Bft)
18.02.2007 00:50 4,7 C 74 % 1014,2 hPa 0,0 mm 0,0 km/h (0 Bft) O-SO 108 0 min 0 UV-I 0 W/m 0,0 km/h (0 Bft)
18.02.2007 00:55 4,6 C 74 % 1014,2 hPa 0,0 mm 0,0 km/h (0 Bft) O-SO 107 0 min 0 UV-I 0 W/m 0,0 km/h (0 Bft)
18.02.2007 01:00 4,6 C 74 % 1014,3 hPa 0,0 mm 0,0 km/h (0 Bft) O-SO 112 0 min 0 UV-I 0 W/m 1,6 km/h (1 Bft)
18.02.2007 01:10 4,4 C 76 % 1014,3 hPa 0,0 mm 0,0 km/h (0 Bft) N 0 0 min 0 UV-I 0 W/m 0,0 km/h (0 Bft)
18.02.2007 01:20 4,0 C 77 % 1014,1 hPa 0,0 mm 0,0 km/h (0 Bft) N 0 0 min 0 UV-I 0 W/m 0,0 km/h (0 Bft)
18.02.2007 01:30 3,6 C 80 % 1014,0 hPa 0,0 mm 0,0 km/h (0 Bft) N 0 0 min 0 UV-I 0 W/m 0,0 km/h (0 Bft)
18.02.2007 01:40 3,2 C 81 % 1014,0 hPa 0,0 mm 0,0 km/h (0 Bft) N 0 0 min 0 UV-I 0 W/m 0,0 km/h (0 Bft)
18.02.2007 01:50 2,9 C 81 % 1014,0 hPa 0,0 mm 0,0 km/h (0 Bft) N 0 0 min 0 UV-I 0 W/m 0,0 km/h (0 Bft)
18.02.2007 02:00 2,7 C 82 % 1014,0 hPa 0,0 mm 0,0 km/h (0 Bft) N 0 0 min 0 UV-I 0 W/m 0,0 km/h (0 Bft)
18.02.2007 02:10 2,6 C 83 % 1014,0 hPa 0,0 mm 0,0 km/h (0 Bft) N 0 0 min 0 UV-I 0 W/m 0,0 km/h (0 Bft)
18.02.2007 02:20 2,4 C 83 % 1014,0 hPa 0,0 mm 0,0 km/h (0 Bft) N 0 0 min 0 UV-I 0 W/m 0,0 km/h (0 Bft)
18.02.2007 02:30 2,3 C 84 % 1013,9 hPa 0,0 mm 0,0 km/h (0 Bft) N 0 0 min 0 UV-I 0 W/m 0,0 km/h (0 Bft)
18.02.2007 02:40 2,1 C 85 % 1013,9 hPa 0,0 mm 0,0 km/h (0 Bft) N 0 0 min 0 UV-I 0 W/m 0,0 km/h (0 Bft)
18.02.2007 02:50 2,0 C 85 % 1013,9 hPa 0,0 mm 0,0 km/h (0 Bft) N 0 0 min 0 UV-I 0 W/m 0,0 km/h (0 Bft)
18.02.2007 03:00 1,8 C 86 % 1013,8 hPa 0,0 mm 0,0 km/h (0 Bft) N 0 0 min 0 UV-I 0 W/m 0,0 km/h (0 Bft)
18.02.2007 03:10 1,8 C 86 % 1013,8 hPa 0,0 mm 0,0 km/h (0 Bft) N 0 0 min 0 UV-I 0 W/m 0,0 km/h (0 Bft)
18.02.2007 03:20 1,6 C 86 % 1013,7 hPa 0,0 mm 0,0 km/h (0 Bft) N 0 0 min 0 UV-I 0 W/m 0,0 km/h (0 Bft)
18.02.2007 03:30 1,4 C 86 % 1013,7 hPa 0,0 mm 0,0 km/h (0 Bft) N 0 0 min 0 UV-I 0 W/m 0,0 km/h (0 Bft)
18.02.2007 03:40 1,3 C 87 % 1013,6 hPa 0,0 mm 0,0 km/h (0 Bft) N 0 0 min 0 UV-I 0 W/m 0,0 km/h (0 Bft)
18.02.2007 03:50 1,3 C 86 % 1013,7 hPa 0,0 mm 0,0 km/h (0 Bft) N 0 0 min 0 UV-I 0 W/m 0,0 km/h (0 Bft)
18.02.2007 04:00 1,3 C 87 % 1013,7 hPa 0,0 mm 0,0 km/h (0 Bft) N 0 0 min 0 UV-I 0 W/m 0,0 km/h (0 Bft)
18.02.2007 04:10 1,3 C 87 % 1013,7 hPa 0,0 mm 0,0 km/h (0 Bft) N 0 0 min 0 UV-I 0 W/m 0,0 km/h (0 Bft)
18.02.2007 04:20 1,2 C 87 % 1013,7 hPa 0,0 mm 0,0 km/h (0 Bft) N 0 0 min 0 UV-I 0 W/m 0,0 km/h (0 Bft)
18.02.2007 04:30 1,0 C 87 % 1013,8 hPa 0,0 mm 0,0 km/h (0 Bft) N 0 0 min 0 UV-I 0 W/m 0,0 km/h (0 Bft)
18.02.2007 04:40 1,1 C 87 % 1013,7 hPa 0,0 mm 0,0 km/h (0 Bft) N 0 0 min 0 UV-I 0 W/m 0,0 km/h (0 Bft)
18.02.2007 04:50 0,9 C 88 % 1013,7 hPa 0,0 mm 0,0 km/h (0 Bft) N 0 0 min 0 UV-I 0 W/m 0,0 km/h (0 Bft)
18.02.2007 05:00 0,9 C 88 % 1013,6 hPa 0,0 mm 0,0 km/h (0 Bft) N 0 0 min 0 UV-I 0 W/m 0,0 km/h (0 Bft)
18.02.2007 05:10 0,8 C 88 % 1013,7 hPa 0,0 mm 0,0 km/h (0 Bft) N 0 0 min 0 UV-I 0 W/m 0,0 km/h (0 Bft)
18.02.2007 05:20 0,7 C 88 % 1013,7 hPa 0,0 mm 0,0 km/h (0 Bft) N 0 0 min 0 UV-I 0 W/m 0,0 km/h (0 Bft)
18.02.2007 05:30 0,7 C 89 % 1013,6 hPa 0,0 mm 0,0 km/h (0 Bft) N 0 0 min 0 UV-I 0 W/m 0,0 km/h (0 Bft)
18.02.2007 05:40 0,7 C 89 % 1013,5 hPa 0,0 mm 0,0 km/h (0 Bft) N 0 0 min 0 UV-I 0 W/m 0,0 km/h (0 Bft)
18.02.2007 05:50 0,7 C 88 % 1013,4 hPa 0,0 mm 0,0 km/h (0 Bft) N 0 0 min 0 UV-I 0 W/m 0,0 km/h (0 Bft)
18.02.2007 06:00 0,6 C 89 % 1013,3 hPa 0,0 mm 0,0 km/h (0 Bft) N 0 0 min 0 UV-I 0 W/m 0,0 km/h (0 Bft)
18.02.2007 06:10 0,7 C 88 % 1013,3 hPa 0,0 mm 0,0 km/h (0 Bft) N 0 0 min 0 UV-I 0 W/m 0,0 km/h (0 Bft)
18.02.2007 06:20 0,5 C 89 % 1013,2 hPa 0,0 mm 0,0 km/h (0 Bft) N 0 0 min 0 UV-I 0 W/m 0,0 km/h (0 Bft)
18.02.2007 06:30 0,5 C 89 % 1013,2 hPa 0,0 mm 0,0 km/h (0 Bft) N 0 0 min 0 UV-I 0 W/m 0,0 km/h (0 Bft)
18.02.2007 06:40 0,3 C 89 % 1013,2 hPa 0,0 mm 0,0 km/h (0 Bft) N 0 0 min 0 UV-I 0 W/m 0,0 km/h (0 Bft)
18.02.2007 06:50 0,2 C 89 % 1013,3 hPa 0,0 mm 0,0 km/h (0 Bft) N 0 0 min 0 UV-I 0 W/m 0,0 km/h (0 Bft)
18.02.2007 07:00 0,1 C 89 % 1013,4 hPa 0,0 mm 0,0 km/h (0 Bft) N 0 0 min 0 UV-I 0 W/m 0,0 km/h (0 Bft)
18.02.2007 07:10 0,1 C 89 % 1013,4 hPa 0,0 mm 0,0 km/h (0 Bft) N 0 0 min 0 UV-I 0 W/m 0,0 km/h (0 Bft)
18.02.2007 07:20 0,1 C 89 % 1013,4 hPa 0,0 mm 0,0 km/h (0 Bft) N 0 0 min 0 UV-I 0 W/m 0,0 km/h (0 Bft)
18.02.2007 07:30 -0,1 C 90 % 1013,5 hPa 0,0 mm 0,0 km/h (0 Bft) N 0 0 min 0 UV-I 0 W/m 0,0 km/h (0 Bft)
18.02.2007 07:40 0,1 C 90 % 1013,6 hPa 0,0 mm 0,0 km/h (0 Bft) N 0 0 min 0 UV-I 0 W/m 0,0 km/h (0 Bft)
18.02.2007 07:50 0,2 C 89 % 1013,7 hPa 0,0 mm 0,0 km/h (0 Bft) N 0 10 min 0 UV-I 16 W/m 0,0 km/h (0 Bft)
18.02.2007 08:00 0,2 C 90 % 1013,6 hPa 0,0 mm 0,0 km/h (0 Bft) N 0 0 min 0 UV-I 21 W/m 0,0 km/h (0 Bft)
18.02.2007 08:10 0,3 C 90 % 1013,7 hPa 0,0 mm 0,0 km/h (0 Bft) N 0 0 min 0 UV-I 32 W/m 0,0 km/h (0 Bft)
18.02.2007 08:20 0,6 C 90 % 1013,6 hPa 0,0 mm 0,0 km/h (0 Bft) N 0 0 min 0 UV-I 49 W/m 0,0 km/h (0 Bft)
18.02.2007 08:30 0,7 C 89 % 1013,7 hPa 0,0 mm 0,0 km/h (0 Bft) N 0 0 min 0 UV-I 65 W/m 0,0 km/h (0 Bft)
18.02.2007 08:40 1,0 C 89 % 1013,7 hPa 0,0 mm 0,0 km/h (0 Bft) N 0 0 min 0 UV-I 76 W/m 0,0 km/h (0 Bft)
18.02.2007 08:50 1,2 C 89 % 1013,7 hPa 0,0 mm 0,0 km/h (0 Bft) N 0 10 min 0 UV-I 95 W/m 0,0 km/h (0 Bft)
18.02.2007 09:00 1,5 C 88 % 1013,7 hPa 0,0 mm 0,0 km/h (0 Bft) N 0 10 min 0 UV-I 123 W/m 0,0 km/h (0 Bft)
18.02.2007 09:10 1,9 C 87 % 1013,7 hPa 0,0 mm 0,0 km/h (0 Bft) N 0 10 min 0 UV-I 139 W/m 0,0 km/h (0 Bft)
18.02.2007 09:20 2,6 C 86 % 1013,8 hPa 0,0 mm 0,0 km/h (0 Bft) N 0 10 min 0 UV-I 132 W/m 0,0 km/h (0 Bft)
18.02.2007 09:30 3,1 C 84 % 1013,8 hPa 0,0 mm 0,0 km/h (0 Bft) N 0 0 min 0 UV-I 97 W/m 0,0 km/h (0 Bft)
18.02.2007 09:40 3,6 C 83 % 1013,7 hPa 0,0 mm 0,0 km/h (0 Bft) N 0 0 min 0 UV-I 104 W/m 0,0 km/h (0 Bft)
18.02.2007 09:50 4,1 C 82 % 1013,8 hPa 0,0 mm 0,0 km/h (0 Bft) O-SO 112 0 min 0 UV-I 125 W/m 1,6 km/h (1 Bft)
18.02.2007 10:00 4,4 C 81 % 1013,8 hPa 0,0 mm 0,0 km/h (0 Bft) N 0 0 min 0 UV-I 134 W/m 0,0 km/h (0 Bft)
18.02.2007 10:10 4,9 C 80 % 1013,9 hPa 0,0 mm 0,0 km/h (0 Bft) N 0 0 min 0 UV-I 149 W/m 0,0 km/h (0 Bft)
18.02.2007 10:20 5,5 C 77 % 1014,0 hPa 0,0 mm 0,0 km/h (0 Bft) O-SO 112 0 min 0 UV-I 146 W/m 1,6 km/h (1 Bft)
18.02.2007 10:30 5,8 C 75 % 1014,1 hPa 0,0 mm 0,0 km/h (0 Bft) S-SO 157 0 min 0 UV-I 134 W/m 1,6 km/h (1 Bft)
18.02.2007 10:40 6,1 C 74 % 1014,2 hPa 0,0 mm 0,0 km/h (0 Bft) S-SO 157 0 min 1 UV-I 190 W/m 3,2 km/h (1 Bft)
18.02.2007 10:50 6,2 C 74 % 1014,1 hPa 0,0 mm 0,0 km/h (0 Bft) S-SO 157 0 min 1 UV-I 204 W/m 3,2 km/h (1 Bft)
18.02.2007 11:00 6,3 C 72 % 1014,2 hPa 0,0 mm 0,0 km/h (0 Bft) W 270 10 min 1 UV-I 227 W/m 4,8 km/h (1 Bft)
18.02.2007 11:10 6,2 C 74 % 1014,3 hPa 0,0 mm 1,6 km/h (1 Bft) W-SW 247 0 min 1 UV-I 213 W/m 6,4 km/h (2 Bft)
18.02.2007 11:20 6,2 C 75 % 1014,3 hPa 0,0 mm 1,6 km/h (1 Bft) W-SW 247 10 min 1 UV-I 257 W/m 6,4 km/h (2 Bft)
18.02.2007 11:30 6,3 C 75 % 1014,4 hPa 0,0 mm 1,6 km/h (1 Bft) W-SW 247 0 min 1 UV-I 200 W/m 6,4 km/h (2 Bft)
18.02.2007 11:40 6,4 C 75 % 1014,3 hPa 0,0 mm 1,6 km/h (1 Bft) SW 225 10 min 1 UV-I 348 W/m 6,4 km/h (2 Bft)
18.02.2007 11:50 6,8 C 75 % 1014,5 hPa 0,0 mm 1,6 km/h (1 Bft) W 270 10 min 1 UV-I 353 W/m 6,4 km/h (2 Bft)
18.02.2007 12:00 7,0 C 75 % 1014,4 hPa 0,0 mm 1,6 km/h (1 Bft) W-SW 247 10 min 1 UV-I 388 W/m 8,0 km/h (2 Bft)
18.02.2007 12:10 7,2 C 74 % 1014,4 hPa 0,0 mm 1,6 km/h (1 Bft) W-SW 247 10 min 1 UV-I 420 W/m 6,4 km/h (2 Bft)
18.02.2007 12:20 7,5 C 73 % 1014,3 hPa 0,0 mm 1,6 km/h (1 Bft) W-SW 247 10 min 1 UV-I 424 W/m 6,4 km/h (2 Bft)
18.02.2007 12:30 7,6 C 74 % 1014,3 hPa 0,0 mm 1,6 km/h (1 Bft) W-SW 247 10 min 1 UV-I 408 W/m 6,4 km/h (2 Bft)
18.02.2007 12:40 7,8 C 74 % 1014,2 hPa 0,0 mm 1,6 km/h (1 Bft) W-NW 292 10 min 1 UV-I 360 W/m 8,0 km/h (2 Bft)
18.02.2007 12:50 7,8 C 75 % 1014,2 hPa 0,0 mm 1,6 km/h (1 Bft) W-SW 247 10 min 1 UV-I 353 W/m 8,0 km/h (2 Bft)
18.02.2007 13:00 7,8 C 75 % 1014,0 hPa 0,0 mm 1,6 km/h (1 Bft) W 270 10 min 1 UV-I 295 W/m 6,4 km/h (2 Bft)
18.02.2007 13:10 7,9 C 74 % 1014,0 hPa 0,0 mm 1,6 km/h (1 Bft) SW 225 10 min 1 UV-I 315 W/m 6,4 km/h (2 Bft)
18.02.2007 13:20 8,0 C 75 % 1014,1 hPa 0,0 mm 1,6 km/h (1 Bft) W-SW 247 0 min 1 UV-I 165 W/m 8,0 km/h (2 Bft)
18.02.2007 13:30 7,9 C 75 % 1014,1 hPa 0,0 mm 1,6 km/h (1 Bft) SW 225 0 min 1 UV-I 162 W/m 8,0 km/h (2 Bft)
18.02.2007 13:40 7,9 C 74 % 1014,0 hPa 0,0 mm 1,6 km/h (1 Bft) W-SW 247 0 min 1 UV-I 165 W/m 8,0 km/h (2 Bft)
18.02.2007 13:50 7,7 C 79 % 1014,0 hPa 0,0 mm 3,2 km/h (1 Bft) W-SW 247 0 min 1 UV-I 105 W/m 9,7 km/h (2 Bft)
18.02.2007 14:00 7,0 C 82 % 1014,2 hPa 0,0 mm 4,8 km/h (1 Bft) W-SW 247 0 min 0 UV-I 95 W/m 16,1 km/h (3 Bft)
18.02.2007 14:10 6,6 C 82 % 1014,3 hPa 0,0 mm 3,2 km/h (1 Bft) W-SW 247 0 min 0 UV-I 114 W/m 11,3 km/h (2 Bft)
18.02.2007 14:20 6,2 C 84 % 1014,4 hPa 0,0 mm 4,8 km/h (1 Bft) W-SW 247 0 min 0 UV-I 93 W/m 12,9 km/h (3 Bft)
18.02.2007 14:30 5,8 C 85 % 1014,5 hPa 0,0 mm 3,2 km/h (1 Bft) W 270 0 min 0 UV-I 83 W/m 11,3 km/h (2 Bft)
18.02.2007 14:40 5,6 C 86 % 1014,5 hPa 0,0 mm 3,2 km/h (1 Bft) W-SW 247 0 min 0 UV-I 86 W/m 11,3 km/h (2 Bft)
18.02.2007 14:50 5,4 C 87 % 1014,6 hPa 0,0 mm 3,2 km/h (1 Bft) W-SW 247 0 min 0 UV-I 54 W/m 8,0 km/h (2 Bft)
18.02.2007 15:00 5,2 C 87 % 1014,6 hPa 0,0 mm 3,2 km/h (1 Bft) W 270 0 min 0 UV-I 47 W/m 8,0 km/h (2 Bft)
18.02.2007 15:10 4,9 C 87 % 1014,6 hPa 0,0 mm 3,2 km/h (1 Bft) W-SW 247 0 min 0 UV-I 69 W/m 8,0 km/h (2 Bft)
18.02.2007 15:20 4,8 C 88 % 1014,7 hPa 0,0 mm 3,2 km/h (1 Bft) W-SW 247 0 min 0 UV-I 65 W/m 11,3 km/h (2 Bft)
18.02.2007 15:30 4,7 C 87 % 1014,7 hPa 0,0 mm 3,2 km/h (1 Bft) W-SW 247 0 min 0 UV-I 60 W/m 14,5 km/h (3 Bft)
18.02.2007 15:40 4,6 C 87 % 1014,8 hPa 0,0 mm 3,2 km/h (1 Bft) W-SW 247 0 min 0 UV-I 58 W/m 9,7 km/h (2 Bft)
18.02.2007 15:50 4,4 C 88 % 1014,7 hPa 0,0 mm 3,2 km/h (1 Bft) W 270 0 min 0 UV-I 47 W/m 8,0 km/h (2 Bft)
18.02.2007 16:00 4,3 C 88 % 1014,8 hPa 0,0 mm 3,2 km/h (1 Bft) W 270 0 min 0 UV-I 35 W/m 8,0 km/h (2 Bft)
18.02.2007 16:10 4,2 C 88 % 1014,8 hPa 0,0 mm 3,2 km/h (1 Bft) W-SW 247 0 min 0 UV-I 32 W/m 9,7 km/h (2 Bft)
18.02.2007 16:20 4,2 C 89 % 1014,8 hPa 0,0 mm 1,6 km/h (1 Bft) W-SW 247 0 min 0 UV-I 32 W/m 8,0 km/h (2 Bft)
18.02.2007 16:30 4,2 C 89 % 1014,8 hPa 0,0 mm 1,6 km/h (1 Bft) W-SW 247 0 min 0 UV-I 28 W/m 6,4 km/h (2 Bft)
18.02.2007 16:40 4,3 C 89 % 1014,8 hPa 0,0 mm 1,6 km/h (1 Bft) W-SW 247 0 min 0 UV-I 18 W/m 8,0 km/h (2 Bft)
18.02.2007 16:50 4,4 C 89 % 1014,8 hPa 0,0 mm 0,0 km/h (0 Bft) W-SW 247 0 min 0 UV-I 14 W/m 4,8 km/h (1 Bft)
18.02.2007 17:00 4,4 C 89 % 1014,9 hPa 0,0 mm 1,6 km/h (1 Bft) W-SW 247 0 min 0 UV-I 11 W/m 4,8 km/h (1 Bft)
18.02.2007 17:10 4,5 C 89 % 1015,0 hPa 0,0 mm 1,6 km/h (1 Bft) W-SW 247 0 min 0 UV-I 9 W/m 4,8 km/h (1 Bft)
18.02.2007 17:20 4,6 C 89 % 1015,0 hPa 0,0 mm 0,0 km/h (0 Bft) W-SW 247 0 min 0 UV-I 5 W/m 4,8 km/h (1 Bft)
18.02.2007 17:30 4,6 C 88 % 1015,1 hPa 0,0 mm 1,6 km/h (1 Bft) W 270 0 min 0 UV-I 5 W/m 4,8 km/h (1 Bft)
18.02.2007 17:40 4,7 C 87 % 1015,1 hPa 0,0 mm 1,6 km/h (1 Bft) W-SW 247 0 min 0 UV-I 0 W/m 6,4 km/h (2 Bft)
18.02.2007 17:50 4,7 C 88 % 1015,2 hPa 0,0 mm 0,0 km/h (0 Bft) W-SW 247 0 min 0 UV-I 0 W/m 4,8 km/h (1 Bft)
18.02.2007 18:00 4,7 C 87 % 1015,2 hPa 0,0 mm 1,6 km/h (1 Bft) W-SW 247 0 min 0 UV-I 0 W/m 6,4 km/h (2 Bft)
18.02.2007 18:10 4,7 C 87 % 1015,2 hPa 0,0 mm 1,6 km/h (1 Bft) W 270 0 min 0 UV-I 0 W/m 6,4 km/h (2 Bft)
18.02.2007 18:20 4,7 C 87 % 1015,3 hPa 0,0 mm 1,6 km/h (1 Bft) W-SW 247 0 min 0 UV-I 0 W/m 11,3 km/h (2 Bft)
18.02.2007 18:30 4,7 C 87 % 1015,3 hPa 0,0 mm 1,6 km/h (1 Bft) W-SW 247 0 min 0 UV-I 0 W/m 4,8 km/h (1 Bft)
18.02.2007 18:40 4,7 C 86 % 1015,4 hPa 0,0 mm 1,6 km/h (1 Bft) W-NW 292 0 min 0 UV-I 0 W/m 6,4 km/h (2 Bft)
18.02.2007 18:50 4,6 C 86 % 1015,5 hPa 0,0 mm 1,6 km/h (1 Bft) W-SW 247 0 min 0 UV-I 0 W/m 6,4 km/h (2 Bft)
18.02.2007 19:00 4,6 C 86 % 1015,5 hPa 0,0 mm 3,2 km/h (1 Bft) W-SW 247 0 min 0 UV-I 0 W/m 8,0 km/h (2 Bft)
18.02.2007 19:10 4,6 C 86 % 1015,5 hPa 0,0 mm 1,6 km/h (1 Bft) SW 225 0 min 0 UV-I 0 W/m 6,4 km/h (2 Bft)
18.02.2007 19:20 4,6 C 86 % 1015,5 hPa 0,0 mm 1,6 km/h (1 Bft) SW 225 0 min 0 UV-I 0 W/m 6,4 km/h (2 Bft)
18.02.2007 19:30 4,5 C 86 % 1015,7 hPa 0,0 mm 1,6 km/h (1 Bft) SW 225 0 min 0 UV-I 0 W/m 6,4 km/h (2 Bft)
18.02.2007 19:40 4,5 C 87 % 1015,7 hPa 0,0 mm 1,6 km/h (1 Bft) SW 225 0 min 0 UV-I 0 W/m 4,8 km/h (1 Bft)
18.02.2007 19:50 4,5 C 87 % 1015,6 hPa 0,0 mm 1,6 km/h (1 Bft) SW 225 0 min 0 UV-I 0 W/m 6,4 km/h (2 Bft)
18.02.2007 20:00 4,4 C 87 % 1015,7 hPa 0,0 mm 1,6 km/h (1 Bft) W-SW 247 0 min 0 UV-I 0 W/m 9,7 km/h (2 Bft)
18.02.2007 20:10 4,4 C 87 % 1015,7 hPa 0,0 mm 1,6 km/h (1 Bft) W-SW 247 0 min 0 UV-I 0 W/m 6,4 km/h (2 Bft)
18.02.2007 20:20 4,4 C 87 % 1015,9 hPa 0,0 mm 1,6 km/h (1 Bft) W-SW 247 0 min 0 UV-I 0 W/m 4,8 km/h (1 Bft)
18.02.2007 20:35 4,4 C 88 % 1016,0 hPa 0,0 mm 1,4 km/h (1 Bft) W-NW 295 0 min 0 UV-I 0 W/m 6,4 km/h (2 Bft)
18.02.2007 20:40 4,4 C 88 % 1016,0 hPa 0,0 mm 2,2 km/h (1 Bft) W-SW 248 0 min 0 UV-I 0 W/m 8,0 km/h (2 Bft)
18.02.2007 20:55 4,4 C 88 % 1016,2 hPa 0,0 mm 0,8 km/h (0 Bft) W 277 0 min 0 UV-I 0 W/m 3,2 km/h (1 Bft)
18.02.2007 21:00 4,3 C 89 % 1016,1 hPa 0,0 mm 0,6 km/h (0 Bft) SW 227 0 min 0 UV-I 0 W/m 4,8 km/h (1 Bft)
18.02.2007 21:05 4,3 C 89 % 1016,1 hPa 0,0 mm 0,5 km/h (0 Bft) W-SW 244 0 min 0 UV-I 0 W/m 3,2 km/h (1 Bft)
18.02.2007 21:10 4,3 C 89 % 1016,0 hPa 0,0 mm 0,6 km/h (0 Bft) W 263 0 min 0 UV-I 0 W/m 6,4 km/h (2 Bft)
18.02.2007 21:15 4,3 C 89 % 1016,1 hPa 0,0 mm 0,7 km/h (0 Bft) W-NW 302 0 min 0 UV-I 0 W/m 3,2 km/h (1 Bft)
18.02.2007 21:20 4,3 C 90 % 1016,1 hPa 0,0 mm 0,3 km/h (0 Bft) W-NW 288 0 min 0 UV-I 0 W/m 3,2 km/h (1 Bft)
18.02.2007 21:25 4,3 C 90 % 1016,1 hPa 0,0 mm 0,6 km/h (0 Bft) NW 304 0 min 0 UV-I 0 W/m 4,8 km/h (1 Bft)
18.02.2007 21:35 4,3 C 91 % 1016,2 hPa 0,0 mm 0,2 km/h (0 Bft) W 262 0 min 0 UV-I 0 W/m 1,6 km/h (1 Bft)
18.02.2007 21:40 4,2 C 91 % 1016,3 hPa 0,0 mm 0,4 km/h (0 Bft) W 266 0 min 0 UV-I 0 W/m 3,2 km/h (1 Bft)
18.02.2007 21:45 4,2 C 91 % 1016,3 hPa 0,0 mm 0,1 km/h (0 Bft) W-SW 254 0 min 0 UV-I 0 W/m 1,6 km/h (1 Bft)
18.02.2007 21:50 4,2 C 91 % 1016,4 hPa 0,0 mm 0,2 km/h (0 Bft) W 277 0 min 0 UV-I 0 W/m 3,2 km/h (1 Bft)
18.02.2007 21:55 4,2 C 92 % 1016,4 hPa 0,0 mm 0,1 km/h (0 Bft) W 279 0 min 0 UV-I 0 W/m 1,6 km/h (1 Bft)
18.02.2007 22:00 4,2 C 92 % 1016,4 hPa 0,0 mm 1,3 km/h (1 Bft) NW 313 0 min 0 UV-I 0 W/m 6,4 km/h (2 Bft)
18.02.2007 22:05 4,3 C 92 % 1016,4 hPa 0,0 mm 0,6 km/h (0 Bft) W-SW 240 0 min 0 UV-I 0 W/m 3,2 km/h (1 Bft)
18.02.2007 22:10 4,3 C 92 % 1016,3 hPa 0,0 mm 1,3 km/h (1 Bft) W-SW 246 0 min 0 UV-I 0 W/m 4,8 km/h (1 Bft)
18.02.2007 22:15 4,3 C 91 % 1016,3 hPa 0,0 mm 0,2 km/h (0 Bft) SW 236 0 min 0 UV-I 0 W/m 3,2 km/h (1 Bft)
18.02.2007 22:20 4,3 C 92 % 1016,3 hPa 0,0 mm 0,2 km/h (0 Bft) NW 307 0 min 0 UV-I 0 W/m 1,6 km/h (1 Bft)
18.02.2007 22:25 4,3 C 91 % 1016,3 hPa 0,0 mm 0,2 km/h (0 Bft) W-NW 294 0 min 0 UV-I 0 W/m 1,6 km/h (1 Bft)
18.02.2007 22:30 4,3 C 91 % 1016,4 hPa 0,0 mm 0,1 km/h (0 Bft) W-NW 294 0 min 0 UV-I 0 W/m 1,6 km/h (1 Bft)
18.02.2007 22:35 4,3 C 91 % 1016,2 hPa 0,0 mm 0,2 km/h (0 Bft) W-NW 287 0 min 0 UV-I 0 W/m 1,6 km/h (1 Bft)
18.02.2007 22:40 4,4 C 91 % 1016,3 hPa 0,0 mm 0,0 km/h (0 Bft) W-NW 287 0 min 0 UV-I 0 W/m 1,6 km/h (1 Bft)
18.02.2007 22:45 4,3 C 90 % 1016,3 hPa 0,0 mm 0,0 km/h (0 Bft) W-NW 287 0 min 0 UV-I 0 W/m 0,0 km/h (0 Bft)
18.02.2007 22:50 4,3 C 90 % 1016,2 hPa 0,0 mm 0,0 km/h (0 Bft) W-NW 287 0 min 0 UV-I 0 W/m 1,6 km/h (1 Bft)
18.02.2007 22:55 4,3 C 90 % 1016,2 hPa 0,0 mm 0,0 km/h (0 Bft) W 280 0 min 0 UV-I 0 W/m 1,6 km/h (1 Bft)
18.02.2007 23:00 4,3 C 90 % 1016,1 hPa 0,0 mm 0,3 km/h (0 Bft) W 281 0 min 0 UV-I 0 W/m 3,2 km/h (1 Bft)
18.02.2007 23:05 4,3 C 90 % 1016,1 hPa 0,0 mm 0,0 km/h (0 Bft) W 280 0 min 0 UV-I 0 W/m 0,0 km/h (0 Bft)
18.02.2007 23:10 4,3 C 90 % 1016,2 hPa 0,0 mm 0,0 km/h (0 Bft) W 280 0 min 0 UV-I 0 W/m 0,0 km/h (0 Bft)
18.02.2007 23:15 4,3 C 90 % 1016,1 hPa 0,0 mm 0,0 km/h (0 Bft) W 281 0 min 0 UV-I 0 W/m 0,0 km/h (0 Bft)
18.02.2007 23:20 4,3 C 90 % 1016,1 hPa 0,0 mm 0,0 km/h (0 Bft) W 281 0 min 0 UV-I 0 W/m 0,0 km/h (0 Bft)
18.02.2007 23:25 4,3 C 90 % 1016,0 hPa 0,0 mm 0,0 km/h (0 Bft) W 281 0 min 0 UV-I 0 W/m 0,0 km/h (0 Bft)
18.02.2007 23:30 4,3 C 90 % 1016,0 hPa 0,0 mm 0,1 km/h (0 Bft) W 280 0 min 0 UV-I 0 W/m 1,6 km/h (1 Bft)
18.02.2007 23:35 4,3 C 90 % 1016,0 hPa 0,0 mm 0,0 km/h (0 Bft) W 281 0 min 0 UV-I 0 W/m 1,6 km/h (1 Bft)
18.02.2007 23:40 4,3 C 90 % 1016,0 hPa 0,0 mm 0,4 km/h (0 Bft) W-SW 246 0 min 0 UV-I 0 W/m 3,2 km/h (1 Bft)
18.02.2007 23:45 4,3 C 90 % 1016,0 hPa 0,0 mm 0,4 km/h (0 Bft) S-SW 213 0 min 0 UV-I 0 W/m 3,2 km/h (1 Bft)
18.02.2007 23:50 4,3 C 90 % 1015,9 hPa 0,0 mm 0,1 km/h (0 Bft) SW 214 0 min 0 UV-I 0 W/m 1,6 km/h (1 Bft)
18.02.2007 23:55 4,3 C 90 % 1015,9 hPa 0,0 mm 0,7 km/h (0 Bft) S-SW 198 0 min 0 UV-I 0 W/m 4,8 km/h (1 Bft)
_ Min-Zeit 07:30 11:00 06:20 - 00:00 - - - - - 00:00
Minimum _ -0,1 C 72 % 1013,2 hPa - 0,0 km/h (0 Bft) - - - - - 0,0 km/h (0 Bft)
_ Max-Zeit 13:10 21:55 21:50 00:05 14:00 - - 07:50 10:40 12:20 14:00
Maximum _ 8,1 C 92 % 1016,4 hPa 0,1 mm 4,8 km/h
W-SW (1 Bft)
- - 10 min 1 UV-I 424 W/m 16,1 km/h
N (3 Bft)
Durchschnitt _ 3,9 C 85 % 1014,7 hPa #0,1 mm 0,8 km/h (0 Bft) W-SW - #2:50 h 1 UV-I 140 W/m 3,3 km/h (1 Bft)